Regional Weather Roundup
Issued by NWS

Home | Current Version | Previous Version | Text Only | Print | Product List | Glossary On
Versions: 1 2 3 4 5 6 7 8 9 10 11 12 13 14 15 16 17 18 19 20 21 22 23 24 25 26 27 28 29 30 31 32 33 34 35 36 37 38 39 40 41 42 43 44 45 46 47 48 49 50
000
ASUS44 KLIX 061911
RWRLA
LOUISIANA WEATHER ROUNDUP
NATIONAL WEATHER SERVICE NEW ORLEANS LA
200 PM CDT WED MAY 06 2015

NOTE: "FAIR" INDICATES FEW OR NO CLOUDS BELOW 12,000 FEET WITH NO
      SIGNIFICANT WEATHER AND/OR OBSTRUCTIONS TO VISIBILITY.
      SKY/WX - SKY CONDITION AND SIGNIFICANT WEATHER.
      TMP - AIR TEMPERATURE.    DP   - DEWPOINT TEMPERATURE.
      RH  - RELATIVE HUMIDITY.  PRES - PRESSURE.
      HX  - HEAT INDEX.         WCI  - WIND CHILL INDEX.

*  THESE STATIONS ARE NOT NWS OR FAA STATIONS AND ARE NOT UNDER
   NWS QUALITY CONTROL.

LAZ040-048-061>063-065-066-069-062000-
SOUTHEAST LOUISIANA

CITY           SKY/WX    TMP DP  RH WIND       PRES   REMARKS
N.O. AUDUBON     N/A     85  66  52 MISG        N/A
N.O. INTL ARPT PTSUNNY   85  62  46 S13       30.05F
N.O. LAKEFRONT LGT RAIN  78  68  71 E12       30.07S
SLIDELL        PTSUNNY   81  68  64 SE13      30.06F
BATON ROUGE    MOSUNNY   85  63  47 SE9       30.04F
BOOTHVILLE     PTSUNNY   79  70  74 E9        30.06F
BELLE CHASSE   PTSUNNY   82  67  60 SE14      30.05F
BOGALUSA*        N/A     83  65  53 S9        30.09F
GALLIANO*      MOCLDY    83  66  57 MISG      30.05F
NEW ROADS*     FAIR      83  62  49 SE9       30.04F
GONZALES*      CLOUDY    82  61  49 SE3       30.04F
HAMMOND*       MOSUNNY   84  59  42 S10       30.08F
HOUMA*         PTSUNNY   82  64  54 SE10      30.05F
PORT FOURCHON* CLEAR     79  68  69 E7        30.09S

$$

LAZ041-044-053-054-062000-
SOUTHWEST LOUISIANA

CITY           SKY/WX    TMP DP  RH WIND       PRES   REMARKS
LAKE CHARLES   MOSUNNY   83  67  58 SE14      30.01F
LAFAYETTE      PTSUNNY   83  63  50 S7        30.03F
PATTERSON      MOSUNNY  N/A N/A N/A SE13      30.04F
SALT POINT       N/A     81  67  62 SE9G18    30.02F
NEW IBERIA     MOSUNNY  N/A N/A N/A SE23      30.03F
CHENAULT AIRPK PTSUNNY   82  68  61 SE10      30.02F

$$

LAZ027-028-062000-
CENTRAL LOUISIANA

CITY           SKY/WX    TMP DP  RH WIND       PRES   REMARKS
FORT POLK      MOSUNNY   82  64  53 S8        30.01F
ALEXANDRIA INT PTSUNNY   80  63  55 SE12      30.02F
ALEXANDRIA     PTSUNNY   83  63  50 VRB5      30.04F

$$

LAZ001-002-062000-
NORTHWEST LOUISIANA

CITY           SKY/WX    TMP DP  RH WIND       PRES   REMARKS
SHREVEPORT     PTSUNNY   82  64  54 S15       30.00F
BARKSDALE AFB  MOSUNNY   83  63  52 S13G22    30.01F
DTN SHREVEPORT PTSUNNY   80  64  58 SE10      30.01F

$$

LAZ014-016-062000-
NORTHEAST LOUISIANA

CITY           SKY/WX    TMP DP  RH WIND       PRES   REMARKS
MONROE         PTSUNNY   81  61  50 S9        30.06F
TALLULAH       SUNNY     83  60  45 S9        30.06F

$$



USA.gov is the U.S. government's official web portal to all federal, state and local government web resources and services.